This is the latest recevied weather packets stored in our database for station/object KE0QIB. If no packets are shown the sender has not sent any weather packets the latest 10 day(s).
| Time | Temp. | Humidity | Pressure | Rain* | Wind** | Luminosity | Snow |
|---|---|---|---|---|---|---|---|
| 1777559228 | 7.78° C | 41% | 1007.4 hPa | 0 mm | - | - | - |
| 1777558928 | 7.78° C | 41% | 1007.2 hPa | 0 mm | - | - | - |
| 1777558628 | 7.78° C | 42% | 1007.2 hPa | 0 mm | - | - | - |
| 1777558328 | 7.78° C | 41% | 1007.2 hPa | 0 mm | - | - | - |
| 1777558028 | 7.78° C | 40% | 1007.3 hPa | 0 mm | - | - | - |
| 1777557728 | 7.78° C | 42% | 1007.3 hPa | 0 mm | - | - | - |
| 1777557428 | 7.78° C | 44% | 1007.3 hPa | 0 mm | - | - | - |
| 1777557128 | 7.78° C | 42% | 1007.2 hPa | 0 mm | - | - | - |
| 1777556828 | 7.22° C | 43% | 1007.2 hPa | 0 mm | - | - | - |
| 1777556528 | 7.22° C | 44% | 1007.2 hPa | 0 mm | - | - | - |
| 1777556228 | 7.22° C | 44% | 1007.5 hPa | 0 mm | - | - | - |
| 1777555928 | 6.67° C | 45% | 1007.5 hPa | 0 mm | - | - | - |
| 1777555628 | 6.67° C | 45% | 1007.5 hPa | 0 mm | - | - | - |
| 1777555328 | 6.11° C | 45% | 1007.1 hPa | 0 mm | - | - | - |
| 1777555028 | 6.11° C | 47% | 1007.1 hPa | 0 mm | - | - | - |
| 1777554728 | 6.11° C | 45% | 1007.1 hPa | 0 mm | - | - | - |
| 1777554428 | 5.56° C | 47% | 1007.3 hPa | 0 mm | - | - | - |
| 1777554128 | 5° C | 49% | 1007.3 hPa | 0 mm | - | - | - |
| 1777553828 | 5° C | 49% | 1007.3 hPa | 0 mm | - | - | - |
| 1777553528 | 4.44° C | 49% | 1007.6 hPa | 0 mm | - | - | - |
| 1777553228 | 3.89° C | 50% | 1007.6 hPa | 0 mm | - | - | - |
| 1777552928 | 3.89° C | 51% | 1007.6 hPa | 0 mm | - | - | - |
| 1777552628 | 3.33° C | 52% | 1007.7 hPa | 0 mm | - | - | - |
| 1777552328 | 3.33° C | 53% | 1007.7 hPa | 0 mm | - | - | - |
| 1777552028 | 2.78° C | 55% | 1007.7 hPa | 0 mm | - | - | - |
* Rain latest hour (hover to see other rain measurements)
** Current wind speed in m/s (hover to see current wind gust speed)